Time,TemperatureF,DewpointF,PressureIn,WindDirection,WindDirectionDegrees,WindSpeedMPH,WindSpeedGustMPH,Humidity,HourlyPrecipIn,Conditions,Clouds,dailyrainin,SoftwareType,DateUTC
2013-01-14 00:00:00,64.0,59.1,30.01,WSW,250,3.0,4.0,84,0.00,,---,0.00,VWS V14.01,2013-01-14 05:00:00,
2013-01-14 00:02:00,64.0,59.1,30.01,SW,236,4.0,7.0,84,0.00,,---,0.00,VWS V14.01,2013-01-14 05:02:00,
2013-01-14 00:07:00,64.0,59.1,30.01,SW,223,2.0,7.0,84,0.00,,---,0.00,VWS V14.01,2013-01-14 05:07:00,
2013-01-14 00:12:00,64.0,59.1,30.01,SW,226,2.0,7.0,84,0.00,,---,0.00,VWS V14.01,2013-01-14 05:12:00,
2013-01-14 00:17:00,64.0,59.1,30.01,SW,225,4.0,7.0,84,0.00,,---,0.00,VWS V14.01,2013-01-14 05:17:00,
2013-01-14 00:22:00,64.0,59.1,30.01,SW,227,2.0,7.0,84,0.00,,---,0.00,VWS V14.01,2013-01-14 05:22:00,
2013-01-14 00:26:00,64.0,59.1,30.01,SW,218,1.0,7.0,84,0.00,,---,0.00,VWS V14.01,2013-01-14 05:26:00,
2013-01-14 00:30:00,64.0,59.1,30.01,WSW,238,3.0,7.0,84,0.00,,---,0.00,VWS V14.01,2013-01-14 05:30:00,
2013-01-14 00:31:00,64.0,59.1,30.01,SW,229,3.0,5.0,84,0.00,,---,0.00,VWS V14.01,2013-01-14 05:31:00,
2013-01-14 00:37:00,64.1,59.2,30.01,WSW,240,4.0,5.0,84,0.00,,---,0.00,VWS V14.01,2013-01-14 05:37:00,
2013-01-14 00:42:00,64.1,59.2,30.01,WSW,243,3.0,5.0,84,0.00,,---,0.00,VWS V14.01,2013-01-14 05:42:00,
2013-01-14 00:46:00,64.2,59.3,30.02,WSW,250,5.0,7.0,84,0.00,,---,0.00,VWS V14.01,2013-01-14 05:46:00,
2013-01-14 00:51:00,64.2,59.3,30.01,SW,234,2.0,7.0,84,0.00,,---,0.00,VWS V14.01,2013-01-14 05:51:00,
2013-01-14 00:56:00,64.2,58.9,30.01,SW,234,0.0,7.0,83,0.00,,---,0.00,VWS V14.01,2013-01-14 05:56:00,
2013-01-14 01:00:00,64.2,59.3,30.01,WSW,242,3.0,7.0,84,0.00,,---,0.00,VWS V14.01,2013-01-14 06:00:00,
2013-01-14 01:01:00,64.2,59.3,30.01,SW,225,1.0,5.0,84,0.00,,---,0.00,VWS V14.01,2013-01-14 06:01:00,
2013-01-14 01:06:00,64.2,59.3,30.01,SW,236,0.0,5.0,84,0.00,,---,0.00,VWS V14.01,2013-01-14 06:06:00,
2013-01-14 01:11:00,64.3,59.4,30.02,SW,225,3.0,5.0,84,0.00,,---,0.00,VWS V14.01,2013-01-14 06:11:00,
2013-01-14 01:16:00,64.3,59.4,30.02,WSW,242,4.0,5.0,84,0.00,,---,0.00,VWS V14.01,2013-01-14 06:16:00,
2013-01-14 01:21:00,64.3,59.4,30.02,SSW,200,3.0,5.0,84,0.00,,---,0.00,VWS V14.01,2013-01-14 06:21:00,
2013-01-14 01:26:00,64.3,59.0,30.02,SSW,197,5.0,5.0,83,0.00,,---,0.00,VWS V14.01,2013-01-14 06:26:00,
2013-01-14 01:30:00,64.3,59.4,30.02,SSW,197,1.0,5.0,84,0.00,,---,0.00,VWS V14.01,2013-01-14 06:30:00,
2013-01-14 01:31:00,64.2,59.3,30.03,WSW,240,2.0,3.0,84,0.00,,---,0.00,VWS V14.01,2013-01-14 06:31:00,
2013-01-14 01:36:00,64.2,59.3,30.03,WSW,240,0.0,4.0,84,0.00,,---,0.00,VWS V14.01,2013-01-14 06:36:00,
2013-01-14 01:41:00,64.2,59.3,30.03,WSW,240,3.0,4.0,84,0.00,,---,0.00,VWS V14.01,2013-01-14 06:41:00,
2013-01-14 01:46:00,64.2,59.3,30.03,WSW,253,2.0,4.0,84,0.00,,---,0.00,VWS V14.01,2013-01-14 06:46:00,
2013-01-14 01:51:00,64.0,59.1,30.03,WSW,254,0.0,4.0,84,0.00,,---,0.00,VWS V14.01,2013-01-14 06:51:00,
2013-01-14 01:56:00,63.8,58.9,30.03,WSW,254,0.0,4.0,84,0.00,,---,0.00,VWS V14.01,2013-01-14 06:56:00,
2013-01-14 02:00:00,63.8,58.9,30.03,WSW,254,0.0,4.0,84,0.00,,---,0.00,VWS V14.01,2013-01-14 07:00:00,
2013-01-14 02:01:00,63.7,58.8,30.04,WSW,254,0.0,0.0,84,0.00,,---,0.00,VWS V14.01,2013-01-14 07:01:00,
2013-01-14 02:06:00,63.4,58.8,30.04,WSW,254,2.0,2.0,85,0.00,,---,0.00,VWS V14.01,2013-01-14 07:06:00,
2013-01-14 02:11:00,63.3,59.0,30.04,WSW,254,0.0,2.0,86,0.00,,---,0.00,VWS V14.01,2013-01-14 07:11:00,
2013-01-14 02:16:00,63.2,59.3,30.04,WSW,254,3.0,3.0,87,0.00,,---,0.00,VWS V14.01,2013-01-14 07:16:00,
2013-01-14 02:21:00,63.0,59.4,30.04,WSW,254,0.0,3.0,88,0.00,,---,0.00,VWS V14.01,2013-01-14 07:21:00,
2013-01-14 02:26:00,62.8,59.5,30.04,WSW,254,0.0,3.0,89,0.00,,---,0.00,VWS V14.01,2013-01-14 07:26:00,
2013-01-14 02:30:00,62.7,59.4,30.04,WSW,254,0.0,3.0,89,0.00,,---,0.00,VWS V14.01,2013-01-14 07:30:00,
2013-01-14 02:31:00,62.5,59.5,30.04,WSW,254,0.0,0.0,90,0.00,,---,0.00,VWS V14.01,2013-01-14 07:31:00,
2013-01-14 02:36:00,62.3,59.6,30.04,WSW,254,0.0,0.0,91,0.00,,---,0.00,VWS V14.01,2013-01-14 07:36:00,
2013-01-14 02:41:00,62.0,59.3,30.04,WSW,254,0.0,0.0,91,0.00,,---,0.00,VWS V14.01,2013-01-14 07:41:00,
2013-01-14 02:46:00,61.8,59.5,30.04,WSW,254,0.0,0.0,92,0.01,,---,0.01,VWS V14.01,2013-01-14 07:46:00,
2013-01-14 02:51:00,61.6,59.3,30.04,WSW,254,0.0,0.0,92,0.01,,---,0.01,VWS V14.01,2013-01-14 07:51:00,
2013-01-14 02:56:00,61.4,59.1,30.04,WSW,254,0.0,0.0,92,0.01,,---,0.01,VWS V14.01,2013-01-14 07:56:00,
2013-01-14 03:00:00,61.4,59.1,30.04,WSW,254,0.0,0.0,92,0.01,,---,0.01,VWS V14.01,2013-01-14 08:00:00,
2013-01-14 03:01:00,61.3,59.3,30.04,WSW,254,0.0,0.0,93,0.01,,---,0.01,VWS V14.01,2013-01-14 08:01:00,
2013-01-14 03:06:00,61.2,59.2,30.04,WSW,254,0.0,0.0,93,0.01,,---,0.01,VWS V14.01,2013-01-14 08:06:00,
2013-01-14 03:11:00,61.0,59.0,30.04,WSW,254,0.0,0.0,93,0.01,,---,0.01,VWS V14.01,2013-01-14 08:11:00,
2013-01-14 03:16:00,60.9,58.9,30.05,WSW,254,0.0,0.0,93,0.01,,---,0.01,VWS V14.01,2013-01-14 08:16:00,
2013-01-14 03:21:00,60.6,58.6,30.04,WSW,254,0.0,0.0,93,0.01,,---,0.01,VWS V14.01,2013-01-14 08:21:00,
2013-01-14 03:26:00,60.4,58.4,30.04,WSW,254,0.0,0.0,93,0.01,,---,0.01,VWS V14.01,2013-01-14 08:26:00,
2013-01-14 03:30:00,60.3,58.3,30.04,WSW,254,0.0,0.0,93,0.01,,---,0.01,VWS V14.01,2013-01-14 08:30:00,
2013-01-14 03:31:00,60.2,58.5,30.04,WSW,254,0.0,0.0,94,0.01,,---,0.01,VWS V14.01,2013-01-14 08:31:00,
2013-01-14 03:36:00,60.0,58.3,30.04,West,266,0.0,4.0,94,0.04,,---,0.04,VWS V14.01,2013-01-14 08:36:00,
2013-01-14 03:41:00,59.7,58.3,30.03,South,182,2.0,4.0,95,0.07,,---,0.07,VWS V14.01,2013-01-14 08:41:00,
2013-01-14 03:46:00,59.6,58.2,30.02,SSE,157,2.0,4.0,95,0.07,,---,0.07,VWS V14.01,2013-01-14 08:46:00,
2013-01-14 03:51:00,59.7,58.6,30.01,SSE,157,1.0,4.0,96,0.07,,---,0.07,VWS V14.01,2013-01-14 08:51:00,
2013-01-14 03:56:00,59.7,58.6,30.00,SE,130,4.0,7.0,96,0.07,,---,0.07,VWS V14.01,2013-01-14 08:56:00,
2013-01-14 04:00:00,59.7,58.6,30.00,South,175,1.0,7.0,96,0.08,,---,0.08,VWS V14.01,2013-01-14 09:00:00,
2013-01-14 04:01:00,59.8,58.7,30.01,SSW,213,2.0,3.0,96,0.07,,---,0.08,VWS V14.01,2013-01-14 09:01:00,
2013-01-14 04:06:00,59.8,58.7,30.01,SSW,210,1.0,4.0,96,0.07,,---,0.08,VWS V14.01,2013-01-14 09:06:00,
2013-01-14 04:11:00,59.9,58.8,30.00,SSW,197,2.0,4.0,96,0.07,,---,0.08,VWS V14.01,2013-01-14 09:11:00,
2013-01-14 04:16:00,60.0,59.2,30.00,SSW,197,1.0,4.0,97,0.07,,---,0.08,VWS V14.01,2013-01-14 09:16:00,
2013-01-14 04:21:00,60.1,59.2,30.01,SSW,197,0.0,4.0,97,0.07,,---,0.08,VWS V14.01,2013-01-14 09:21:00,
2013-01-14 04:26:00,60.1,59.2,30.00,SSW,197,0.0,4.0,97,0.07,,---,0.08,VWS V14.01,2013-01-14 09:26:00,
2013-01-14 04:30:00,60.1,59.2,30.00,SSW,197,0.0,4.0,97,0.07,,---,0.08,VWS V14.01,2013-01-14 09:30:00,
2013-01-14 04:31:00,60.1,59.2,30.01,SSW,197,0.0,2.0,97,0.07,,---,0.08,VWS V14.01,2013-01-14 09:31:00,
2013-01-14 04:36:00,60.1,59.2,30.00,SSW,197,0.0,2.0,97,0.07,,---,0.08,VWS V14.01,2013-01-14 09:36:00,
2013-01-14 04:41:00,60.1,59.0,30.00,SSW,197,0.0,2.0,96,0.07,,---,0.08,VWS V14.01,2013-01-14 09:41:00,
2013-01-14 04:46:00,60.0,58.9,30.00,SSW,197,0.0,2.0,96,0.07,,---,0.08,VWS V14.01,2013-01-14 09:46:00,
2013-01-14 04:51:00,60.0,58.9,30.00,SSW,197,0.0,2.0,96,0.07,,---,0.08,VWS V14.01,2013-01-14 09:51:00,
2013-01-14 04:56:00,59.9,58.8,30.00,SSW,197,0.0,2.0,96,0.07,,---,0.08,VWS V14.01,2013-01-14 09:56:00,
2013-01-14 05:00:00,59.8,58.7,30.00,SSW,197,0.0,2.0,96,0.07,,---,0.08,VWS V14.01,2013-01-14 10:00:00,
2013-01-14 05:01:00,59.8,58.7,30.01,SSW,197,0.0,0.0,96,0.00,,---,0.08,VWS V14.01,2013-01-14 10:01:00,
2013-01-14 05:06:00,59.8,58.7,30.01,SSW,197,0.0,0.0,96,0.00,,---,0.08,VWS V14.01,2013-01-14 10:06:00,
2013-01-14 05:11:00,59.8,58.7,30.01,SSW,197,0.0,0.0,96,0.00,,---,0.08,VWS V14.01,2013-01-14 10:11:00,
2013-01-14 05:16:00,59.7,58.6,30.01,SSW,197,0.0,0.0,96,0.00,,---,0.08,VWS V14.01,2013-01-14 10:16:00,
2013-01-14 05:21:00,59.8,58.7,30.01,SSW,197,0.0,0.0,96,0.00,,---,0.08,VWS V14.01,2013-01-14 10:21:00,
2013-01-14 05:26:00,59.7,58.6,30.01,SSW,197,0.0,0.0,96,0.00,,---,0.08,VWS V14.01,2013-01-14 10:26:00,
2013-01-14 05:30:00,59.7,58.6,30.01,SSW,197,0.0,0.0,96,0.00,,---,0.08,VWS V14.01,2013-01-14 10:30:00,
2013-01-14 05:31:00,59.7,58.8,30.01,SSW,197,0.0,0.0,97,0.00,,---,0.08,VWS V14.01,2013-01-14 10:31:00,
2013-01-14 05:36:00,59.7,58.8,30.00,SSW,197,0.0,0.0,97,0.00,,---,0.08,VWS V14.01,2013-01-14 10:36:00,
2013-01-14 05:41:00,59.7,58.8,30.01,SSW,197,0.0,0.0,97,0.00,,---,0.08,VWS V14.01,2013-01-14 10:41:00,
2013-01-14 05:46:00,59.6,58.8,30.01,SSW,197,0.0,0.0,97,0.00,,---,0.08,VWS V14.01,2013-01-14 10:46:00,
2013-01-14 05:51:00,59.6,58.8,30.02,SSW,197,0.0,0.0,97,0.00,,---,0.08,VWS V14.01,2013-01-14 10:51:00,
2013-01-14 05:57:00,59.5,58.7,30.02,SSW,197,0.0,0.0,97,0.00,,---,0.08,VWS V14.01,2013-01-14 10:57:00,
2013-01-14 06:00:00,59.5,58.7,30.01,SSW,197,0.0,0.0,97,0.00,,---,0.08,VWS V14.01,2013-01-14 11:00:00,
2013-01-14 06:02:00,59.5,58.7,30.01,SSW,197,0.0,0.0,97,0.00,,---,0.08,VWS V14.01,2013-01-14 11:02:00,
2013-01-14 06:06:00,59.4,58.5,30.01,SSW,197,0.0,0.0,97,0.00,,---,0.08,VWS V14.01,2013-01-14 11:06:00,
2013-01-14 06:11:00,59.4,58.5,30.01,SSW,197,0.0,0.0,97,0.00,,---,0.08,VWS V14.01,2013-01-14 11:11:00,
2013-01-14 06:16:00,59.2,58.1,30.02,SSW,197,0.0,0.0,96,0.00,,---,0.08,VWS V14.01,2013-01-14 11:16:00,
2013-01-14 06:21:00,59.1,58.2,30.02,SSW,197,0.0,0.0,97,0.00,,---,0.08,VWS V14.01,2013-01-14 11:21:00,
2013-01-14 06:26:00,59.0,58.2,30.02,SSW,197,0.0,0.0,97,0.00,,---,0.08,VWS V14.01,2013-01-14 11:26:00,
2013-01-14 06:30:00,58.9,58.0,30.03,SSW,197,0.0,0.0,97,0.00,,---,0.08,VWS V14.01,2013-01-14 11:30:00,
2013-01-14 06:31:00,58.9,58.0,30.02,SSW,197,0.0,0.0,97,0.00,,---,0.08,VWS V14.01,2013-01-14 11:31:00,
2013-01-14 06:36:00,58.8,58.0,30.04,SSW,197,0.0,0.0,97,0.00,,---,0.08,VWS V14.01,2013-01-14 11:36:00,
2013-01-14 06:41:00,58.7,57.8,30.04,SSW,197,0.0,0.0,97,0.00,,---,0.08,VWS V14.01,2013-01-14 11:41:00,
2013-01-14 06:46:00,58.6,57.8,30.04,SSW,197,0.0,0.0,97,0.00,,---,0.08,VWS V14.01,2013-01-14 11:46:00,
2013-01-14 06:51:00,58.8,58.0,30.04,SSW,197,0.0,0.0,97,0.00,,---,0.08,VWS V14.01,2013-01-14 11:51:00,
2013-01-14 06:56:00,58.9,58.3,30.04,SSW,197,0.0,0.0,98,0.00,,---,0.08,VWS V14.01,2013-01-14 11:56:00,
2013-01-14 07:00:00,59.0,58.2,30.04,SSW,197,0.0,0.0,97,0.00,,---,0.08,VWS V14.01,2013-01-14 12:00:00,
2013-01-14 07:01:00,59.0,58.2,30.05,SSW,197,0.0,0.0,97,0.00,,---,0.08,VWS V14.01,2013-01-14 12:01:00,
2013-01-14 07:06:00,59.0,58.2,30.05,SSW,197,0.0,0.0,97,0.00,,---,0.08,VWS V14.01,2013-01-14 12:06:00,
2013-01-14 07:11:00,59.0,58.2,30.05,SSW,197,0.0,0.0,97,0.00,,---,0.08,VWS V14.01,2013-01-14 12:11:00,
2013-01-14 07:16:00,59.2,58.6,30.05,SSW,197,0.0,0.0,98,0.00,,---,0.08,VWS V14.01,2013-01-14 12:16:00,
2013-01-14 07:21:00,59.1,58.2,30.05,SSW,197,0.0,0.0,97,0.00,,---,0.08,VWS V14.01,2013-01-14 12:21:00,
2013-01-14 07:26:00,58.9,58.0,30.05,SSW,197,0.0,0.0,97,0.00,,---,0.08,VWS V14.01,2013-01-14 12:26:00,
2013-01-14 07:30:00,58.8,58.0,30.05,SSW,197,0.0,0.0,97,0.00,,---,0.08,VWS V14.01,2013-01-14 12:30:00,
2013-01-14 07:31:00,58.7,57.8,30.05,SSW,197,0.0,0.0,97,0.00,,---,0.08,VWS V14.01,2013-01-14 12:31:00,
2013-01-14 07:36:00,58.6,57.8,30.05,SSW,197,0.0,0.0,97,0.00,,---,0.08,VWS V14.01,2013-01-14 12:36:00,
2013-01-14 07:41:00,58.6,57.8,30.05,SSW,197,0.0,0.0,97,0.00,,---,0.08,VWS V14.01,2013-01-14 12:41:00,
2013-01-14 07:46:00,58.6,57.8,30.05,SSW,197,0.0,0.0,97,0.00,,---,0.08,VWS V14.01,2013-01-14 12:46:00,
2013-01-14 07:51:00,58.6,57.8,30.05,SSW,197,0.0,0.0,97,0.00,,---,0.08,VWS V14.01,2013-01-14 12:51:00,
2013-01-14 07:56:00,58.6,57.8,30.05,SSW,197,0.0,0.0,97,0.00,,---,0.08,VWS V14.01,2013-01-14 12:56:00,
2013-01-14 08:00:00,58.6,57.8,30.05,SSW,197,0.0,0.0,97,0.00,,---,0.08,VWS V14.01,2013-01-14 13:00:00,
2013-01-14 08:01:00,58.5,57.7,30.05,SSW,197,0.0,0.0,97,0.00,,---,0.08,VWS V14.01,2013-01-14 13:01:00,
2013-01-14 08:06:00,58.5,57.7,30.05,SSW,197,0.0,0.0,97,0.00,,---,0.08,VWS V14.01,2013-01-14 13:06:00,
2013-01-14 08:11:00,58.4,57.6,30.05,SSW,197,0.0,0.0,97,0.00,,---,0.08,VWS V14.01,2013-01-14 13:11:00,
2013-01-14 08:16:00,58.3,57.5,30.05,SSW,197,0.0,0.0,97,0.00,,---,0.08,VWS V14.01,2013-01-14 13:16:00,
2013-01-14 08:21:00,58.2,57.4,30.05,SSW,197,0.0,0.0,97,0.00,,---,0.08,VWS V14.01,2013-01-14 13:21:00,
2013-01-14 08:26:00,58.2,57.4,30.05,SSW,197,0.0,0.0,97,0.00,,---,0.08,VWS V14.01,2013-01-14 13:26:00,
2013-01-14 08:30:00,58.2,57.6,30.05,SSW,197,0.0,0.0,98,0.00,,---,0.08,VWS V14.01,2013-01-14 13:30:00,
2013-01-14 08:31:00,58.3,57.7,30.05,SSW,197,0.0,0.0,98,0.00,,---,0.08,VWS V14.01,2013-01-14 13:31:00,
2013-01-14 08:36:00,58.4,57.8,30.06,SSW,197,0.0,0.0,98,0.00,,---,0.08,VWS V14.01,2013-01-14 13:36:00,
2013-01-14 08:41:00,58.4,57.8,30.06,SSW,197,0.0,0.0,98,0.00,,---,0.08,VWS V14.01,2013-01-14 13:41:00,
2013-01-14 08:46:00,58.4,57.8,30.07,SSW,197,0.0,0.0,98,0.00,,---,0.08,VWS V14.01,2013-01-14 13:46:00,
2013-01-14 08:51:00,58.4,57.8,30.06,SSW,197,0.0,0.0,98,0.00,,---,0.08,VWS V14.01,2013-01-14 13:51:00,
2013-01-14 08:56:00,58.4,57.8,30.07,SSW,197,0.0,0.0,98,0.00,,---,0.08,VWS V14.01,2013-01-14 13:56:00,
2013-01-14 09:00:00,58.4,57.8,30.07,SSW,197,0.0,0.0,98,0.00,,---,0.08,VWS V14.01,2013-01-14 14:00:00,
2013-01-14 09:01:00,58.4,57.8,30.07,SSW,197,0.0,0.0,98,0.00,,---,0.08,VWS V14.01,2013-01-14 14:01:00,
2013-01-14 09:06:00,58.4,57.8,30.07,SSW,197,0.0,0.0,98,0.00,,---,0.08,VWS V14.01,2013-01-14 14:06:00,
2013-01-14 09:11:00,58.4,57.8,30.07,SSW,197,0.0,0.0,98,0.00,,---,0.08,VWS V14.01,2013-01-14 14:11:00,
2013-01-14 09:16:00,58.5,57.9,30.08,SSW,197,0.0,0.0,98,0.00,,---,0.08,VWS V14.01,2013-01-14 14:16:00,
2013-01-14 09:21:00,58.4,57.8,30.08,SSW,197,0.0,0.0,98,0.00,,---,0.08,VWS V14.01,2013-01-14 14:21:00,
2013-01-14 09:26:00,58.4,57.8,30.08,SSW,197,0.0,0.0,98,0.00,,---,0.08,VWS V14.01,2013-01-14 14:26:00,
2013-01-14 09:30:00,58.5,57.9,30.08,SSW,197,0.0,0.0,98,0.00,,---,0.08,VWS V14.01,2013-01-14 14:30:00,
2013-01-14 09:31:00,58.6,58.0,30.08,SSW,197,0.0,0.0,98,0.00,,---,0.08,VWS V14.01,2013-01-14 14:31:00,
2013-01-14 09:36:00,58.7,58.1,30.09,SSW,197,0.0,0.0,98,0.00,,---,0.08,VWS V14.01,2013-01-14 14:36:00,
2013-01-14 09:41:00,58.9,58.3,30.09,SSW,197,0.0,0.0,98,0.01,,---,0.09,VWS V14.01,2013-01-14 14:41:00,
2013-01-14 09:46:00,58.9,58.3,30.09,SSW,197,0.0,0.0,98,0.01,,---,0.09,VWS V14.01,2013-01-14 14:46:00,
2013-01-14 09:51:00,58.9,58.3,30.09,SSW,197,0.0,0.0,98,0.02,,---,0.10,VWS V14.01,2013-01-14 14:51:00,
2013-01-14 09:56:00,58.9,58.3,30.08,SSW,197,0.0,2.0,98,0.02,,---,0.10,VWS V14.01,2013-01-14 14:56:00,
2013-01-14 10:00:00,59.0,58.4,30.08,SSW,197,0.0,3.0,98,0.02,,---,0.10,VWS V14.01,2013-01-14 15:00:00,
2013-01-14 10:01:00,59.0,58.4,30.08,SSW,197,0.0,0.0,98,0.02,,---,0.10,VWS V14.01,2013-01-14 15:01:00,
2013-01-14 10:06:00,59.1,58.5,30.08,SSW,197,0.0,1.0,98,0.03,,---,0.11,VWS V14.01,2013-01-14 15:06:00,
2013-01-14 10:11:00,59.2,58.6,30.08,SSW,197,0.0,1.0,98,0.03,,---,0.11,VWS V14.01,2013-01-14 15:11:00,
2013-01-14 10:16:00,59.3,58.7,30.08,SSW,197,0.0,1.0,98,0.03,,---,0.11,VWS V14.01,2013-01-14 15:16:00,
2013-01-14 10:21:00,59.4,58.8,30.08,SSW,197,0.0,1.0,98,0.03,,---,0.11,VWS V14.01,2013-01-14 15:21:00,
2013-01-14 10:26:00,59.4,58.8,30.08,SSW,197,0.0,1.0,98,0.03,,---,0.11,VWS V14.01,2013-01-14 15:26:00,
2013-01-14 10:30:00,59.5,58.9,30.08,NNW,336,0.0,3.0,98,0.03,,---,0.11,VWS V14.01,2013-01-14 15:30:00,
2013-01-14 10:31:00,59.5,58.9,30.08,NNW,336,0.0,0.0,98,0.03,,---,0.11,VWS V14.01,2013-01-14 15:31:00,
2013-01-14 10:36:00,59.5,58.9,30.08,North,5,1.0,3.0,98,0.03,,---,0.11,VWS V14.01,2013-01-14 15:36:00,
2013-01-14 10:41:00,59.3,58.7,30.08,NNE,32,0.0,3.0,98,0.03,,---,0.11,VWS V14.01,2013-01-14 15:41:00,
2013-01-14 10:46:00,59.2,58.6,30.08,NNE,32,0.0,3.0,98,0.03,,---,0.11,VWS V14.01,2013-01-14 15:46:00,
2013-01-14 10:51:00,59.0,58.4,30.08,NNE,31,1.0,3.0,98,0.03,,---,0.11,VWS V14.01,2013-01-14 15:51:00,
2013-01-14 10:56:00,58.9,58.3,30.09,NNE,27,4.0,4.0,98,0.03,,---,0.11,VWS V14.01,2013-01-14 15:56:00,
2013-01-14 11:00:00,58.8,58.0,30.09,NW,314,7.0,7.0,97,0.03,,---,0.11,VWS V14.01,2013-01-14 16:00:00,
2013-01-14 11:01:00,58.6,57.8,30.08,NE,41,2.0,7.0,97,0.01,,---,0.11,VWS V14.01,2013-01-14 16:01:00,
2013-01-14 11:06:00,58.1,57.0,30.08,NNW,346,4.0,8.0,96,0.01,,---,0.11,VWS V14.01,2013-01-14 16:06:00,
2013-01-14 11:11:00,57.8,56.7,30.08,NNW,338,5.0,8.0,96,0.01,,---,0.11,VWS V14.01,2013-01-14 16:11:00,
2013-01-14 11:16:00,57.5,56.1,30.08,NNW,341,2.0,8.0,95,0.01,,---,0.11,VWS V14.01,2013-01-14 16:16:00,
2013-01-14 11:21:00,57.3,55.9,30.08,NNW,346,3.0,8.0,95,0.01,,---,0.11,VWS V14.01,2013-01-14 16:21:00,
2013-01-14 11:26:00,57.2,55.8,30.08,NNW,344,3.0,8.0,95,0.01,,---,0.11,VWS V14.01,2013-01-14 16:26:00,
2013-01-14 11:30:00,57.2,55.8,30.08,NNW,342,2.0,8.0,95,0.01,,---,0.11,VWS V14.01,2013-01-14 16:30:00,
2013-01-14 11:31:00,57.1,55.7,30.08,North,11,4.0,5.0,95,0.00,,---,0.11,VWS V14.01,2013-01-14 16:31:00,
2013-01-14 11:36:00,57.0,55.6,30.08,North,11,3.0,5.0,95,0.00,,---,0.11,VWS V14.01,2013-01-14 16:36:00,
2013-01-14 11:41:00,56.9,55.5,30.08,North,5,3.0,5.0,95,0.00,,---,0.11,VWS V14.01,2013-01-14 16:41:00,
2013-01-14 11:46:00,56.8,55.4,30.08,North,5,0.0,5.0,95,0.00,,---,0.11,VWS V14.01,2013-01-14 16:46:00,
2013-01-14 11:51:00,56.8,55.4,30.08,North,5,2.0,5.0,95,0.00,,---,0.11,VWS V14.01,2013-01-14 16:51:00,
2013-01-14 11:56:00,56.7,55.3,30.07,North,5,0.0,5.0,95,0.00,,---,0.11,VWS V14.01,2013-01-14 16:56:00,
2013-01-14 12:00:00,56.6,55.2,30.07,North,5,0.0,5.0,95,0.00,,---,0.11,VWS V14.01,2013-01-14 17:00:00,
2013-01-14 12:01:00,56.6,55.2,30.07,North,5,4.0,4.0,95,0.00,,---,0.11,VWS V14.01,2013-01-14 17:01:00,
2013-01-14 12:06:00,56.6,54.9,30.07,North,360,2.0,7.0,94,0.00,,---,0.11,VWS V14.01,2013-01-14 17:06:00,
2013-01-14 12:11:00,56.5,54.8,30.07,NNW,344,6.0,7.0,94,0.00,,---,0.11,VWS V14.01,2013-01-14 17:11:00,
2013-01-14 12:16:00,56.3,54.6,30.06,NNW,342,2.0,7.0,94,0.00,,---,0.11,VWS V14.01,2013-01-14 17:16:00,
2013-01-14 12:21:00,56.3,54.6,30.06,NNW,341,4.0,8.0,94,0.00,,---,0.11,VWS V14.01,2013-01-14 17:21:00,
2013-01-14 12:26:00,56.2,54.5,30.07,NNW,347,1.0,8.0,94,0.00,,---,0.11,VWS V14.01,2013-01-14 17:26:00,
2013-01-14 12:30:00,56.2,54.5,30.07,NNW,347,2.0,8.0,94,0.00,,---,0.11,VWS V14.01,2013-01-14 17:30:00,
2013-01-14 12:31:00,56.2,54.5,30.07,NNW,343,3.0,5.0,94,0.00,,---,0.11,VWS V14.01,2013-01-14 17:31:00,
2013-01-14 12:36:00,56.1,54.1,30.07,NNW,341,2.0,6.0,93,0.00,,---,0.11,VWS V14.01,2013-01-14 17:36:00,
2013-01-14 12:41:00,56.0,53.7,30.07,North,350,3.0,7.0,92,0.00,,---,0.11,VWS V14.01,2013-01-14 17:41:00,
2013-01-14 12:46:00,56.0,54.0,30.07,NNW,334,6.0,7.0,93,0.00,,---,0.11,VWS V14.01,2013-01-14 17:46:00,
2013-01-14 12:51:00,55.9,53.6,30.07,NNW,329,4.0,9.0,92,0.00,,---,0.11,VWS V14.01,2013-01-14 17:51:00,
2013-01-14 12:56:00,55.9,53.9,30.07,NNW,338,3.0,9.0,93,0.00,,---,0.11,VWS V14.01,2013-01-14 17:56:00,
2013-01-14 13:00:00,55.9,53.9,30.07,NNW,336,5.0,9.0,93,0.00,,---,0.11,VWS V14.01,2013-01-14 18:00:00,
2013-01-14 13:01:00,55.9,53.9,30.07,NNW,336,4.0,5.0,93,0.00,,---,0.11,VWS V14.01,2013-01-14 18:01:00,
2013-01-14 13:06:00,55.7,53.7,30.07,NNW,348,3.0,6.0,93,0.00,,---,0.11,VWS V14.01,2013-01-14 18:06:00,
2013-01-14 13:11:00,55.6,53.6,30.07,NW,319,6.0,6.0,93,0.00,,---,0.11,VWS V14.01,2013-01-14 18:11:00,
2013-01-14 13:16:00,55.5,53.5,30.07,NNW,336,4.0,8.0,93,0.01,,---,0.12,VWS V14.01,2013-01-14 18:16:00,
2013-01-14 13:21:00,55.4,53.4,30.07,NNW,334,4.0,8.0,93,0.01,,---,0.12,VWS V14.01,2013-01-14 18:21:00,
2013-01-14 13:26:00,55.2,53.2,30.07,NW,319,4.0,8.0,93,0.01,,---,0.12,VWS V14.01,2013-01-14 18:26:00,
2013-01-14 13:30:00,55.1,53.1,30.07,NNW,344,2.0,8.0,93,0.01,,---,0.12,VWS V14.01,2013-01-14 18:30:00,
2013-01-14 13:31:00,55.0,53.0,30.07,NNW,344,2.0,3.0,93,0.01,,---,0.12,VWS V14.01,2013-01-14 18:31:00,
2013-01-14 13:36:00,54.9,52.9,30.07,NNW,344,1.0,4.0,93,0.01,,---,0.12,VWS V14.01,2013-01-14 18:36:00,
2013-01-14 13:41:00,54.9,53.2,30.07,NNW,342,2.0,4.0,94,0.01,,---,0.12,VWS V14.01,2013-01-14 18:41:00,
2013-01-14 13:46:00,54.8,52.8,30.07,NW,312,7.0,9.0,93,0.01,,---,0.12,VWS V14.01,2013-01-14 18:46:00,
2013-01-14 13:51:00,54.7,52.7,30.07,NW,325,7.0,9.0,93,0.02,,---,0.13,VWS V14.01,2013-01-14 18:51:00,
2013-01-14 13:56:00,54.7,52.7,30.07,NNW,327,4.0,9.0,93,0.02,,---,0.13,VWS V14.01,2013-01-14 18:56:00,
2013-01-14 14:00:00,54.6,52.6,30.07,NNW,338,4.0,9.0,93,0.02,,---,0.13,VWS V14.01,2013-01-14 19:00:00,
2013-01-14 14:01:00,54.6,52.6,30.07,NNW,338,2.0,5.0,93,0.02,,---,0.13,VWS V14.01,2013-01-14 19:01:00,
2013-01-14 14:06:00,54.6,52.3,30.06,NNW,346,0.0,7.0,92,0.02,,---,0.13,VWS V14.01,2013-01-14 19:06:00,
2013-01-14 14:11:00,54.5,52.5,30.07,North,360,0.0,7.0,93,0.03,,---,0.14,VWS V14.01,2013-01-14 19:11:00,
2013-01-14 14:16:00,54.5,52.5,30.07,North,360,0.0,7.0,93,0.03,,---,0.14,VWS V14.01,2013-01-14 19:16:00,
2013-01-14 14:21:00,54.5,52.5,30.07,North,360,2.0,7.0,93,0.03,,---,0.14,VWS V14.01,2013-01-14 19:21:00,
2013-01-14 14:26:00,54.4,52.4,30.06,North,360,0.0,7.0,93,0.03,,---,0.14,VWS V14.01,2013-01-14 19:26:00,
2013-01-14 14:30:00,54.4,52.4,30.06,North,360,0.0,7.0,93,0.03,,---,0.14,VWS V14.01,2013-01-14 19:30:00,
2013-01-14 14:31:00,54.4,52.4,30.06,North,360,2.0,2.0,93,0.02,,---,0.14,VWS V14.01,2013-01-14 19:31:00,
2013-01-14 14:36:00,54.4,52.7,30.07,North,360,3.0,3.0,94,0.02,,---,0.14,VWS V14.01,2013-01-14 19:36:00,
2013-01-14 14:41:00,54.4,52.4,30.06,North,360,2.0,5.0,93,0.03,,---,0.15,VWS V14.01,2013-01-14 19:41:00,
2013-01-14 14:46:00,54.3,52.0,30.06,NNW,344,2.0,7.0,92,0.03,,---,0.15,VWS V14.01,2013-01-14 19:46:00,
2013-01-14 14:51:00,54.2,52.2,30.06,NNW,344,0.0,7.0,93,0.03,,---,0.15,VWS V14.01,2013-01-14 19:51:00,
2013-01-14 14:56:00,54.2,52.2,30.07,NNW,344,5.0,7.0,93,0.03,,---,0.15,VWS V14.01,2013-01-14 19:56:00,
2013-01-14 15:00:00,54.2,51.9,30.06,NNW,344,0.0,7.0,92,0.03,,---,0.15,VWS V14.01,2013-01-14 20:00:00,
2013-01-14 15:01:00,54.2,52.2,30.07,NNW,344,1.0,2.0,93,0.02,,---,0.15,VWS V14.01,2013-01-14 20:01:00,
2013-01-14 15:06:00,54.2,52.5,30.09,NNW,344,3.0,4.0,94,0.02,,---,0.15,VWS V14.01,2013-01-14 20:06:00,
2013-01-14 15:11:00,54.2,52.5,30.09,West,279,7.0,7.0,94,0.02,,---,0.15,VWS V14.01,2013-01-14 20:11:00,
2013-01-14 15:16:00,54.0,52.0,30.10,NW,309,9.0,11.0,93,0.02,,---,0.15,VWS V14.01,2013-01-14 20:16:00,
2013-01-14 15:21:00,53.8,51.8,30.09,WNW,287,3.0,11.0,93,0.02,,---,0.15,VWS V14.01,2013-01-14 20:21:00,
2013-01-14 15:26:00,53.8,51.8,30.08,WNW,286,0.0,11.0,93,0.03,,---,0.16,VWS V14.01,2013-01-14 20:26:00,
2013-01-14 15:30:00,53.7,51.7,30.08,WNW,286,0.0,11.0,93,0.03,,---,0.16,VWS V14.01,2013-01-14 20:30:00,
2013-01-14 15:31:00,53.7,52.0,30.08,WNW,286,0.0,0.0,94,0.02,,---,0.16,VWS V14.01,2013-01-14 20:31:00,
2013-01-14 15:36:00,53.7,52.0,30.07,WNW,286,0.0,2.0,94,0.02,,---,0.16,VWS V14.01,2013-01-14 20:36:00,
2013-01-14 15:41:00,53.7,52.3,30.07,WNW,286,2.0,3.0,95,0.03,,---,0.17,VWS V14.01,2013-01-14 20:41:00,
2013-01-14 15:46:00,53.6,51.9,30.06,WNW,286,0.0,3.0,94,0.03,,---,0.17,VWS V14.01,2013-01-14 20:46:00,
2013-01-14 15:51:00,53.5,52.1,30.07,WNW,286,0.0,3.0,95,0.03,,---,0.17,VWS V14.01,2013-01-14 20:51:00,
2013-01-14 15:56:00,53.5,52.1,30.08,WNW,286,0.0,3.0,95,0.03,,---,0.17,VWS V14.01,2013-01-14 20:56:00,
2013-01-14 16:00:00,53.5,52.1,30.08,WNW,285,4.0,4.0,95,0.03,,---,0.17,VWS V14.01,2013-01-14 21:00:00,
2013-01-14 16:01:00,53.4,52.0,30.09,WNW,294,3.0,5.0,95,0.02,,---,0.17,VWS V14.01,2013-01-14 21:01:00,
2013-01-14 16:06:00,53.5,52.1,30.09,NNW,332,3.0,5.0,95,0.02,,---,0.17,VWS V14.01,2013-01-14 21:06:00,
2013-01-14 16:11:00,53.3,51.9,30.08,NNW,332,0.0,5.0,95,0.03,,---,0.18,VWS V14.01,2013-01-14 21:11:00,
2013-01-14 16:16:00,53.3,51.9,30.10,NNW,330,3.0,5.0,95,0.03,,---,0.18,VWS V14.01,2013-01-14 21:16:00,
2013-01-14 16:21:00,53.2,51.8,30.10,NW,304,5.0,5.0,95,0.03,,---,0.18,VWS V14.01,2013-01-14 21:21:00,
2013-01-14 16:26:00,53.0,51.6,30.11,WNW,302,3.0,8.0,95,0.03,,---,0.18,VWS V14.01,2013-01-14 21:26:00,
2013-01-14 16:30:00,53.0,51.6,30.11,NW,309,2.0,8.0,95,0.04,,---,0.19,VWS V14.01,2013-01-14 21:30:00,
2013-01-14 16:31:00,52.9,51.5,30.12,NW,312,5.0,6.0,95,0.03,,---,0.19,VWS V14.01,2013-01-14 21:31:00,
2013-01-14 16:36:00,52.8,51.4,30.12,NW,318,1.0,6.0,95,0.03,,---,0.19,VWS V14.01,2013-01-14 21:36:00,
2013-01-14 16:41:00,52.8,51.1,30.12,NW,313,5.0,6.0,94,0.04,,---,0.20,VWS V14.01,2013-01-14 21:41:00,
2013-01-14 16:46:00,52.7,51.3,30.12,NNW,336,4.0,6.0,95,0.04,,---,0.20,VWS V14.01,2013-01-14 21:46:00,
2013-01-14 16:51:00,52.6,51.2,30.12,NW,325,2.0,6.0,95,0.04,,---,0.20,VWS V14.01,2013-01-14 21:51:00,
2013-01-14 16:56:00,52.6,51.2,30.12,NW,319,3.0,6.0,95,0.05,,---,0.21,VWS V14.01,2013-01-14 21:56:00,
2013-01-14 17:00:00,52.5,51.1,30.12,NW,319,4.0,6.0,95,0.05,,---,0.21,VWS V14.01,2013-01-14 22:00:00,
2013-01-14 17:01:00,52.5,51.1,30.12,NW,319,1.0,4.0,95,0.04,,---,0.21,VWS V14.01,2013-01-14 22:01:00,
2013-01-14 17:06:00,52.4,51.0,30.12,NW,319,0.0,4.0,95,0.04,,---,0.21,VWS V14.01,2013-01-14 22:06:00,
2013-01-14 17:11:00,52.3,50.9,30.12,NW,319,0.0,4.0,95,0.05,,---,0.22,VWS V14.01,2013-01-14 22:11:00,
2013-01-14 17:16:00,52.3,50.9,30.11,NW,319,0.0,4.0,95,0.05,,---,0.22,VWS V14.01,2013-01-14 22:16:00,
2013-01-14 17:21:00,52.2,50.8,30.11,NW,319,0.0,4.0,95,0.05,,---,0.22,VWS V14.01,2013-01-14 22:21:00,
2013-01-14 17:26:00,52.2,50.8,30.12,NW,319,0.0,4.0,95,0.05,,---,0.22,VWS V14.01,2013-01-14 22:26:00,
2013-01-14 17:30:00,52.2,51.1,30.12,NW,319,0.0,4.0,96,0.05,,---,0.22,VWS V14.01,2013-01-14 22:30:00,
2013-01-14 17:31:00,52.2,51.1,30.11,NW,319,0.0,0.0,96,0.03,,---,0.22,VWS V14.01,2013-01-14 22:31:00,
2013-01-14 17:36:00,52.2,51.1,30.11,NW,319,0.0,1.0,96,0.03,,---,0.22,VWS V14.01,2013-01-14 22:36:00,
2013-01-14 17:41:00,52.2,51.1,30.11,NW,319,0.0,1.0,96,0.03,,---,0.22,VWS V14.01,2013-01-14 22:41:00,
2013-01-14 17:46:00,52.2,51.1,30.12,NW,319,0.0,1.0,96,0.03,,---,0.22,VWS V14.01,2013-01-14 22:46:00,
2013-01-14 17:51:00,52.1,51.0,30.12,NW,319,0.0,1.0,96,0.04,,---,0.23,VWS V14.01,2013-01-14 22:51:00,
2013-01-14 17:56:00,52.1,51.0,30.12,NW,319,0.0,1.0,96,0.04,,---,0.23,VWS V14.01,2013-01-14 22:56:00,
2013-01-14 18:00:00,52.1,51.0,30.12,NW,319,0.0,1.0,96,0.04,,---,0.23,VWS V14.01,2013-01-14 23:00:00,
2013-01-14 18:01:00,52.1,51.0,30.12,NW,319,0.0,0.0,96,0.02,,---,0.23,VWS V14.01,2013-01-14 23:01:00,
2013-01-14 18:06:00,52.0,50.9,30.13,NW,319,0.0,1.0,96,0.02,,---,0.23,VWS V14.01,2013-01-14 23:06:00,
2013-01-14 18:11:00,52.0,51.2,30.13,NW,319,0.0,2.0,97,0.02,,---,0.23,VWS V14.01,2013-01-14 23:11:00,
2013-01-14 18:16:00,52.0,50.9,30.12,NW,319,0.0,2.0,96,0.02,,---,0.23,VWS V14.01,2013-01-14 23:16:00,
2013-01-14 18:21:00,51.9,50.8,30.12,NW,319,2.0,2.0,96,0.02,,---,0.23,VWS V14.01,2013-01-14 23:21:00,
2013-01-14 18:26:00,51.9,51.1,30.12,NW,319,0.0,2.0,97,0.03,,---,0.24,VWS V14.01,2013-01-14 23:26:00,
2013-01-14 18:30:00,51.9,51.1,30.12,NW,319,0.0,2.0,97,0.03,,---,0.24,VWS V14.01,2013-01-14 23:30:00,
2013-01-14 18:31:00,51.9,51.1,30.12,NW,319,0.0,0.0,97,0.02,,---,0.24,VWS V14.01,2013-01-14 23:31:00,
2013-01-14 18:36:00,51.8,51.0,30.13,NW,319,0.0,0.0,97,0.02,,---,0.24,VWS V14.01,2013-01-14 23:36:00,
2013-01-14 18:41:00,51.9,51.1,30.14,NW,319,3.0,4.0,97,0.02,,---,0.24,VWS V14.01,2013-01-14 23:41:00,
2013-01-14 18:46:00,51.9,51.1,30.15,NW,319,2.0,5.0,97,0.03,,---,0.25,VWS V14.01,2013-01-14 23:46:00,
2013-01-14 18:51:00,51.9,51.1,30.15,NW,305,6.0,6.0,97,0.03,,---,0.25,VWS V14.01,2013-01-14 23:51:00,
2013-01-14 18:56:00,51.9,51.1,30.15,WNW,289,3.0,6.0,97,0.04,,---,0.26,VWS V14.01,2013-01-14 23:56:00,
2013-01-14 19:00:00,51.8,51.0,30.15,WNW,295,3.0,6.0,97,0.05,,---,0.27,VWS V14.01,2013-01-15 00:00:00,
2013-01-14 19:01:00,51.8,51.0,30.15,NW,325,6.0,6.0,97,0.05,,---,0.28,VWS V14.01,2013-01-15 00:01:00,
2013-01-14 19:06:00,51.9,51.1,30.14,NW,325,3.0,6.0,97,0.06,,---,0.29,VWS V14.01,2013-01-15 00:06:00,
2013-01-14 19:11:00,51.8,51.0,30.14,NNW,339,5.0,6.0,97,0.07,,---,0.30,VWS V14.01,2013-01-15 00:11:00,
2013-01-14 19:16:00,51.8,50.7,30.13,ENE,64,2.0,6.0,96,0.07,,---,0.30,VWS V14.01,2013-01-15 00:16:00,
2013-01-14 19:21:00,51.8,51.0,30.14,NNW,340,3.0,6.0,97,0.08,,---,0.31,VWS V14.01,2013-01-15 00:21:00,
2013-01-14 19:26:00,51.8,51.0,30.14,NNW,340,5.0,6.0,97,0.09,,---,0.32,VWS V14.01,2013-01-15 00:26:00,
2013-01-14 19:30:00,51.8,51.0,30.14,NNW,337,1.0,6.0,97,0.09,,---,0.32,VWS V14.01,2013-01-15 00:30:00,
2013-01-14 19:31:00,51.8,51.0,30.15,NNW,337,1.0,3.0,97,0.08,,---,0.32,VWS V14.01,2013-01-15 00:31:00,
2013-01-14 19:36:00,51.8,51.0,30.15,NNW,337,3.0,3.0,97,0.09,,---,0.33,VWS V14.01,2013-01-15 00:36:00,
2013-01-14 19:41:00,51.9,51.1,30.14,North,11,1.0,4.0,97,0.10,,---,0.34,VWS V14.01,2013-01-15 00:41:00,
2013-01-14 19:46:00,51.8,51.0,30.15,North,5,2.0,4.0,97,0.11,,---,0.35,VWS V14.01,2013-01-15 00:46:00,
2013-01-14 19:51:00,51.8,51.0,30.15,North,5,2.0,4.0,97,0.12,,---,0.36,VWS V14.01,2013-01-15 00:51:00,
2013-01-14 19:56:00,51.8,51.0,30.15,NNW,330,2.0,6.0,97,0.12,,---,0.36,VWS V14.01,2013-01-15 00:56:00,
2013-01-14 20:00:00,51.8,51.0,30.15,NNW,330,2.0,6.0,97,0.13,,---,0.37,VWS V14.01,2013-01-15 01:00:00,
2013-01-14 20:01:00,51.8,51.0,30.15,NNW,338,0.0,4.0,97,0.10,,---,0.37,VWS V14.01,2013-01-15 01:01:00,
2013-01-14 20:06:00,51.8,51.0,30.14,NNW,340,3.0,4.0,97,0.10,,---,0.37,VWS V14.01,2013-01-15 01:06:00,
2013-01-14 20:11:00,51.8,51.0,30.15,NNW,340,4.0,4.0,97,0.11,,---,0.38,VWS V14.01,2013-01-15 01:11:00,
2013-01-14 20:16:00,51.7,50.9,30.14,NNW,340,0.0,4.0,97,0.11,,---,0.38,VWS V14.01,2013-01-15 01:16:00,
2013-01-14 20:21:00,51.7,50.9,30.14,NNW,340,0.0,4.0,97,0.11,,---,0.38,VWS V14.01,2013-01-15 01:21:00,
2013-01-14 20:26:00,51.7,50.9,30.15,NNW,340,0.0,4.0,97,0.12,,---,0.39,VWS V14.01,2013-01-15 01:26:00,
2013-01-14 20:30:00,51.7,50.9,30.15,NNW,340,0.0,4.0,97,0.12,,---,0.39,VWS V14.01,2013-01-15 01:30:00,
2013-01-14 20:31:00,51.7,50.9,30.15,NNW,340,0.0,0.0,97,0.07,,---,0.39,VWS V14.01,2013-01-15 01:31:00,
2013-01-14 20:36:00,51.7,50.9,30.16,NNW,340,0.0,0.0,97,0.08,,---,0.40,VWS V14.01,2013-01-15 01:36:00,
2013-01-14 20:41:00,51.6,50.8,30.16,NNW,340,0.0,3.0,97,0.08,,---,0.40,VWS V14.01,2013-01-15 01:41:00,
2013-01-14 20:46:00,51.6,50.8,30.16,NNW,340,0.0,3.0,97,0.08,,---,0.40,VWS V14.01,2013-01-15 01:46:00,
2013-01-14 20:51:00,51.6,50.8,30.15,ENE,59,3.0,6.0,97,0.09,,---,0.41,VWS V14.01,2013-01-15 01:51:00,
2013-01-14 20:56:00,51.6,50.8,30.14,ENE,57,12.0,12.0,97,0.10,,---,0.42,VWS V14.01,2013-01-15 01:56:00,
2013-01-14 21:00:00,51.7,50.9,30.15,NE,42,4.0,12.0,97,0.10,,---,0.42,VWS V14.01,2013-01-15 02:00:00,
2013-01-14 21:01:00,51.7,50.9,30.15,ENE,67,4.0,4.0,97,0.05,,---,0.42,VWS V14.01,2013-01-15 02:01:00,
2013-01-14 21:06:00,51.8,51.0,30.15,ENE,75,3.0,5.0,97,0.06,,---,0.43,VWS V14.01,2013-01-15 02:06:00,
2013-01-14 21:11:00,51.7,50.9,30.14,ENE,57,4.0,8.0,97,0.07,,---,0.44,VWS V14.01,2013-01-15 02:11:00,
2013-01-14 21:16:00,51.7,50.9,30.15,ENE,71,3.0,12.0,97,0.07,,---,0.44,VWS V14.01,2013-01-15 02:16:00,
2013-01-14 21:21:00,51.5,50.7,30.15,East,80,7.0,12.0,97,0.07,,---,0.44,VWS V14.01,2013-01-15 02:21:00,
2013-01-14 21:26:00,51.3,50.5,30.15,NE,53,2.0,12.0,97,0.07,,---,0.44,VWS V14.01,2013-01-15 02:26:00,
2013-01-14 21:30:00,51.2,50.4,30.15,ENE,74,4.0,12.0,97,0.07,,---,0.44,VWS V14.01,2013-01-15 02:30:00,
2013-01-14 21:31:00,51.2,50.1,30.15,East,81,6.0,7.0,96,0.06,,---,0.45,VWS V14.01,2013-01-15 02:31:00,
2013-01-14 21:36:00,50.9,49.8,30.15,East,79,7.0,11.0,96,0.06,,---,0.45,VWS V14.01,2013-01-15 02:36:00,
2013-01-14 21:41:00,50.7,49.6,30.16,NE,55,6.0,11.0,96,0.07,,---,0.46,VWS V14.01,2013-01-15 02:41:00,
2013-01-14 21:46:00,50.5,49.4,30.16,East,84,6.0,13.0,96,0.07,,---,0.46,VWS V14.01,2013-01-15 02:46:00,
2013-01-14 21:51:00,50.3,49.2,30.16,ENE,78,5.0,13.0,96,0.08,,---,0.47,VWS V14.01,2013-01-15 02:51:00,
2013-01-14 21:56:00,50.0,48.9,30.16,ENE,65,6.0,13.0,96,0.09,,---,0.48,VWS V14.01,2013-01-15 02:56:00,
2013-01-14 22:00:00,49.9,48.8,30.17,ENE,63,4.0,13.0,96,0.10,,---,0.49,VWS V14.01,2013-01-15 03:00:00,
2013-01-14 22:01:00,49.9,48.8,30.17,ENE,69,3.0,5.0,96,0.07,,---,0.49,VWS V14.01,2013-01-15 03:01:00,
2013-01-14 22:06:00,49.7,48.6,30.17,ENE,71,3.0,5.0,96,0.08,,---,0.50,VWS V14.01,2013-01-15 03:06:00,
2013-01-14 22:11:00,49.6,48.5,30.17,ENE,71,3.0,5.0,96,0.08,,---,0.50,VWS V14.01,2013-01-15 03:11:00,
2013-01-14 22:16:00,49.5,48.7,30.18,SE,125,0.0,6.0,97,0.09,,---,0.51,VWS V14.01,2013-01-15 03:16:00,
2013-01-14 22:21:00,49.5,48.7,30.18,East,82,5.0,7.0,97,0.09,,---,0.51,VWS V14.01,2013-01-15 03:21:00,
2013-01-14 22:26:00,49.2,48.1,30.18,East,82,3.0,7.0,96,0.09,,---,0.51,VWS V14.01,2013-01-15 03:26:00,
2013-01-14 22:30:00,49.1,48.0,30.18,East,83,4.0,7.0,96,0.10,,---,0.52,VWS V14.01,2013-01-15 03:30:00,
2013-01-14 22:31:00,49.0,47.9,30.18,East,82,6.0,6.0,96,0.08,,---,0.52,VWS V14.01,2013-01-15 03:31:00,
2013-01-14 22:36:00,48.8,47.7,30.18,East,80,7.0,7.0,96,0.08,,---,0.52,VWS V14.01,2013-01-15 03:36:00,
2013-01-14 22:41:00,48.5,47.4,30.18,ENE,67,5.0,7.0,96,0.08,,---,0.52,VWS V14.01,2013-01-15 03:41:00,
2013-01-14 22:46:00,48.3,47.2,30.18,East,85,5.0,7.0,96,0.09,,---,0.53,VWS V14.01,2013-01-15 03:46:00,
2013-01-14 22:51:00,48.1,47.3,30.19,ENE,67,2.0,7.0,97,0.09,,---,0.53,VWS V14.01,2013-01-15 03:51:00,
2013-01-14 22:56:00,48.0,47.2,30.20,ENE,67,0.0,7.0,97,0.09,,---,0.53,VWS V14.01,2013-01-15 03:56:00,
2013-01-14 23:00:00,47.9,47.1,30.20,ENE,67,2.0,7.0,97,0.11,,---,0.55,VWS V14.01,2013-01-15 04:00:00,
2013-01-14 23:01:00,47.9,47.1,30.19,ENE,67,1.0,4.0,97,0.07,,---,0.56,VWS V14.01,2013-01-15 04:01:00,
2013-01-14 23:06:00,47.9,47.1,30.20,ENE,67,0.0,4.0,97,0.10,,---,0.59,VWS V14.01,2013-01-15 04:06:00,
2013-01-14 23:11:00,47.9,47.1,30.21,ENE,67,0.0,4.0,97,0.11,,---,0.60,VWS V14.01,2013-01-15 04:11:00,
2013-01-14 23:16:00,47.9,47.1,30.22,ENE,67,0.0,4.0,97,0.13,,---,0.62,VWS V14.01,2013-01-15 04:16:00,
2013-01-14 23:21:00,47.8,47.0,30.21,ENE,68,0.0,4.0,97,0.14,,---,0.63,VWS V14.01,2013-01-15 04:21:00,
2013-01-14 23:26:00,47.8,47.0,30.20,SE,131,1.0,4.0,97,0.16,,---,0.65,VWS V14.01,2013-01-15 04:26:00,
2013-01-14 23:30:00,47.7,46.9,30.19,East,92,2.0,5.0,97,0.17,,---,0.66,VWS V14.01,2013-01-15 04:30:00,
2013-01-14 23:31:00,47.6,46.8,30.19,ESE,111,4.0,5.0,97,0.14,,---,0.66,VWS V14.01,2013-01-15 04:31:00,
2013-01-14 23:36:00,47.5,46.7,30.19,East,79,5.0,6.0,97,0.15,,---,0.67,VWS V14.01,2013-01-15 04:36:00,
2013-01-14 23:41:00,47.3,46.5,30.20,East,98,2.0,7.0,97,0.15,,---,0.67,VWS V14.01,2013-01-15 04:41:00,
2013-01-14 23:45:00,47.1,46.3,30.20,East,95,4.0,7.0,97,0.15,,---,0.67,VWS V14.01,2013-01-15 04:45:00,
2013-01-14 23:50:00,47.0,46.2,30.20,East,80,3.0,7.0,97,0.15,,---,0.67,VWS V14.01,2013-01-15 04:50:00,
2013-01-14 23:55:00,46.9,46.1,30.21,ENE,72,0.0,7.0,97,0.16,,---,0.68,VWS V14.01,2013-01-15 04:55:00,